Starlink 36120

operational
NORAD ID: 67016 Int'l Des: 2025-293 Owner: SPXS Country: US Constellation: starlink
LEOCIRCULAR

Starlink 36120について

説明を読み込み中...

リアルタイム位置

3D地球を読み込み中...

次回通過

高度履歴

Altitude vs Time

uPlot chart will show altitude changes over time

軌道要素

1 67016C 25293P 25346.10187500 -.00221490 00000+0 -30527-3 0 3468
2 67016 69.9972 325.9326 0004650 268.3912 187.0817 16.06066302 13
Epoch: Dec 12, 2025 • Age: 59 hours

現在のステータス

高度 280.7 km
速度 7.74 km/s
衛星直下点 -60.85°S, 36.4°E
打ち上げ日 Dec 10, 2025
運用期間 3 days
タイプ internet

技術仕様

分類 Payload
質量 575.00 kg
乾燥質量 530.00 kg
総質量 575.00 kg
長さ 0.30 m
直径 4.10 m
スパン 29.00 m
形状 Box + pan
製造者 SPXS
バスタイプ Starlink V2MO
フェーズステータス In Orbit
所有者/国 SPXS/US

大規模コンステレーション

Loading constellations...